Location: Plainartige
(45.6866°N, 1.7993°E)
Time: 14:04:02
(UTC+00:00)

Tiangong - Visible Passes

Search period start: 22 January 2022 00:00
Search period end: 01 February 2022 00:00
Orbit: 383 x 386 km, 41.5° (Epoch: 21 January)

Date Brightness Start Highest point End Pass type
(mag) Time Alt. Az. Time Alt. Az. Time Alt. Az.
27 Jan 3.4 18:23:03 10° S 18:24:39 13° SSE 18:24:44 13° SSE visible
28 Jan 3.2 18:58:33 10° SW 19:00:08 21° SSW 19:00:08 21° SSW visible
29 Jan 3.0 17:59:14 10° SSW 18:01:35 19° SSE 18:03:14 13° ESE visible
29 Jan 4.3 19:35:01 10° WSW 19:35:26 13° WSW 19:35:26 13° WSW visible
30 Jan 2.2 18:35:20 10° SW 18:38:12 32° S 18:38:29 31° SSE visible
31 Jan 2.7 17:35:45 10° SW 17:38:27 26° SSE 17:41:09 10° ESE visible
31 Jan 3.1 19:11:56 10° WSW 19:13:42 26° SW 19:13:42 26° SW visible
